sat.trackr.live / text

‹ back to catalog

GESAT GEN1

NORAD 62612 · 2025-009D

PAYLOAD ACTIVE UNKNOWN

§ Identity

Operator
Country
FR
Launch date
2025-01-14
Launch site
AFWTR
Launch vehicle
Mass (kg)
RCS (m²)

External: N2YO · Heavens-Above · Gunter

§ Orbital elements

Epoch: 2026-09-22T17:01:22.704384Z

Period
94.12 min
Inclination
97.3966°
Eccentricity
0.0001250
Mean motion
15.29995917 rev/d
Perigee alt
475.0 km
Apogee alt
476.7 km
Semi-major
6,854.0 km
B*
2.2198e-4
RAAN
347.2575°
Arg perigee
81.2750°
Mean anomaly
278.8632°
Rev number
9,382

§ Raw data

GESAT GEN11 62612U 25009D   26265.70929056  .00006369  00000+0  22198-3 0  99902 62612  97.3966 347.2575 0001250  81.2750 278.8632 15.29995917 93828

JSON: /api/v1/satellites/62612 · /tle

For live sub-satellite position, see the globe view (requires WebGL).

§ Visibility from observer

Set your observer location to see the next 7 days of passes ≥ 10°. The values pass through the URL so the page stays shareable.

No JS? Fill the form by hand. The geolocation button needs JavaScript.

§ Radio — SatNOGS DB

ModeDescriptionDownlinkUplink
FM Mode S - Transmitter 1 2.288 GHz
FM Mode S - Transmitter 2 2.290 GHz
FM Mode X - Transmitter 8.367 GHz

3 transmitters · refreshed weekly from db.satnogs.org